{"data":{"norad_id":57891,"intl_designator":"2023-146A","name":"STARLINK-30465","alt_names":[],"object_type":"PAYLOAD","status":"ACTIVE","operator":null,"country":"US","launch_date":"2023-09-20","launch_site_code":"AFETR","launch_vehicle":null,"mission":null,"orbit_class":"UNKNOWN","rcs_meters":null,"size_class":null,"mass_kg":null,"dimensions":null,"purposes":["comms"],"wikipedia_slug":null,"has_3d_model":false,"image_url":null,"decayed_at":null,"tle_current":{"epoch":"2026-09-19T09:43:35.416128Z","epoch_age_seconds":229774,"freshness":"STALE","line1":"1 57891U 23146A   26262.40527102 -.00000115  00000+0  53314-5 0  9993","line2":"2 57891  43.0039 300.1129 0001036 270.3106  89.7627 15.27573745166688","mean_motion":15.27573745,"eccentricity":0.0001036,"inclination_deg":43.0039,"raan_deg":300.1129,"arg_perigee_deg":270.3106,"mean_anomaly_deg":89.7627,"bstar":5.3314e-6,"rev_number":16668,"period_min":94.26713471041,"perigee_km":482.35700500383,"apogee_km":483.77864664374,"semimajor_km":6861.2048258238,"source":"CELESTRAK","updated_at":"2026-09-21T09:00:33.720252Z"}}}